Location: Siratepeler Tepesi
(39.1042°N, 32.0781°E)
Time: 02:16:34
(UTC+00:00)

Cosmos 2228 Rocket - Pass Details

Date: 11 April 2026
Orbit: 611 x 647 km, 82.5° (Epoch: 13 May)

Event Time Altitude Azimuth Distance (km) Brightness Sun altitude
Rises 17:01:19 0° 359° (N) 2,942 6.8 -7.6°
Reaches altitude 10° 17:03:40 10° 7° (N) 2,023 5.9 -8.1°
Maximum altitude 17:07:56 43° 78° (ENE) 889 3.5 -8.9°
Drops below altitude 10° 17:12:08 10° 151° (SSE) 1,987 5.2 -9.6°
Enters shadow 17:13:42 - 156° (SSE) 2,593 5.8 -9.9°
